Regional Weather Roundup
Issued by NWS

Home | Current Version | Previous Version | Graphics & Text | Print | Product List | Glossary On
Versions: 1 2 3 4 5 6 7 8 9 10 11 12 13 14 15 16 17 18 19 20 21 22 23 24 25 26 27 28 29 30 31 32 33 34 35 36 37 38 39 40 41 42 43 44 45 46 47 48 49 50
000
ASUS43 KMKX 270500
RWRWI

WISCONSIN REGIONAL WEATHER ROUNDUP
NATIONAL WEATHER SERVICE MILWAUKEE/SULLIVAN WI
1200 AM CDT MON APR 27 2015

NOTE: "FAIR" INDICATES FEW OR NO CLOUDS BELOW 12,000 FEET WITH NO
SIGNIFICANT WEATHER AND/OR OBSTRUCTIONS TO VISIBILITY.

WIZ001-002-006>008-014>016-023>028-270600-
NORTHWEST WISCONSIN

CITY           SKY/WX    TMP DP  RH WIND       PRES   REMARKS
SUPERIOR ARPT  CLEAR     31  28  90 CALM      30.20R
ASHLAND        CLEAR     30  29  96 CALM      30.19S
HAYWARD        CLEAR     33  25  72 CALM      30.17R
SIREN          CLEAR     37  27  68 CALM      30.17R
CUMBERLAND     CLEAR     36  27  69 N5        30.15R WCI  32
RICE LAKE      CLEAR     37  30  74 CALM      30.16S
CHETEK         CLEAR     42  26  53 N6        30.15R
LADYSMITH      CLEAR     41  24  51 N6        30.16R
EAU CLAIRE     CLEAR     44  24  45 N5        30.13S
MENOMONIE      CLEAR     45  24  44 N5        30.14R
NEW RICHMOND   CLEAR     43  25  48 CALM      30.16R
OSCEOLA        CLEAR     41  27  55 CALM      30.18S
$$

WIZ003>005-009-010-017-018-270600-
NORTH CENTRAL WISCONSIN

CITY           SKY/WX    TMP DP  RH WIND       PRES   REMARKS
MANITOWISH WTR CLEAR     31  26  80 CALM      30.14R
ARBOR VITAE    CLEAR     38  28  66 N3        30.13S
WOODRUFF       CLEAR     38  28  66 N3        30.13S
RHINELANDER    CLEAR     38  28  67 N5        30.13S WCI  34
EAGLE RIVER    CLEAR     37  26  66 CALM      30.13S
LAND O LAKES   CLEAR     34  28  77 N3        30.14R
PHILLIPS       CLEAR     36  26  65 N5        30.13S WCI  32
TOMAHAWK       CLEAR     35  28  73 CALM      30.13S
MEDFORD        CLEAR     39  28  64 N7        30.12S WCI  34
MERRILL        CLEAR     40  30  65 CALM      30.12R
$$

WIZ029-030-035-036-043>047-270600-
CENTRAL WISCONSIN

CITY           SKY/WX    TMP DP  RH WIND       PRES   REMARKS
WAUSAU         CLEAR     45  30  55 CALM      30.10R
MOSINEE        CLEAR     45  30  57 N6        30.12R
MARSHFIELD     CLEAR     46  28  49 NE12      30.11R
STEVENS POINT  CLEAR     41  28  59 E3        30.12R
WAUPACA        CLEAR     46  31  56 CALM      30.11R
WAUTOMA        NOT AVBL
WISC RAPIDS    CLEAR     44  26  49 SE7       30.12R
CAMP DOUGLAS   NOT AVBL
$$

WIZ011>013-019>022-031-037>040-048>050-270600-
NORTHEAST WISCONSIN

CITY           SKY/WX    TMP DP  RH WIND       PRES   REMARKS
ANTIGO         CLEAR     40  28  62 N9        30.11R WCI  34
SHAWANO        CLEAR     41  34  76 CALM      30.11R
OCONTO         CLEAR     42  30  63 N5        30.09S
STURGEON BAY   PTCLDY    43  28  56 N12       30.10S
GREEN BAY      CLEAR     41  34  76 N6        30.10R
MANITOWOC      NOT AVBL
APPLETON       CLEAR     41  30  65 NE5       30.10R
CLINTONVILLE   CLEAR     41  32  70 CALM      30.10S
OSHKOSH        CLEAR     41  32  70 CALM      30.10R
$$

WIZ032>034-041-042-053>061-270600-
SOUTHWEST WISCONSIN

CITY           SKY/WX    TMP DP  RH WIND       PRES   REMARKS
LA CROSSE      CLEAR     48  30  49 NW6       30.10R
SPARTA         CLEAR     47  26  44 N6        30.11R
VIROQUA        CLEAR     46  28  51 N9        30.08R
BOSCOBEL       CLEAR     38  31  76 CALM      30.08R
PRAIRIE DU CHI CLEAR     42  32  69 CALM      30.07R
PLATTEVILLE    CLEAR     45  30  57 NW5       30.05R
$$

WIZ056-057-062-063-064-067-068-270600-
SOUTH CENTRAL WISCONSIN

CITY           SKY/WX    TMP DP  RH WIND       PRES   REMARKS
REEDSBURG      FAIR      47  28  46 NE3       30.08R
BARABOO/DELLS  FAIR      45  29  54 E10       30.08R
LONE ROCK      NOT AVBL
MINERAL POINT  CLEAR     46  23  39 NW5       30.04S
MADISON        CLEAR     41  27  57 E6        30.09R
MIDDLETON      CLEAR     46  28  50 E9        30.09R
WATERTOWN      CLEAR     40  31  69 E6        30.09R
MONROE         CLEAR     43  30  61 NE8       30.07R
JANESVILLE     CLEAR     36  28  75 E6        30.07S WCI  31
$$

WIZ051-052-058>065-066-070>072-270600-
SOUTHEAST WISCONSIN

CITY           SKY/WX    TMP DP  RH WIND       PRES   REMARKS
MILWAUKEE      CLEAR     41  30  65 N10       30.08R
WAUKESHA       CLEAR     37  30  75 NE3       30.09R
MILWAUKEE/TIMM CLEAR     41  30  65 NE7       30.08S
RACINE         CLEAR     41  31  67 N13       30.08R
BURLINGTON     CLEAR     38  28  68 N5        30.08R WCI  34
KENOSHA        CLEAR     41  31  67 N9        30.07R
FOND DU LAC    CLEAR     41  30  65 NE6       30.09S
SHEBOYGAN      CLEAR     38  30  73 N6        30.08R WCI  33
WEST BEND      CLEAR     37  30  75 NW3       30.08R
JUNEAU         CLEAR     40  30  66 NE5       30.10R
$$

LSZ147-162-270600-
LAKE SUPERIOR

STATION/POSITION TIME  TEMP    WIND        PRES    WAVE
                       AIR SEA DIR/SP/G            HT/PER
                 (UTC) (F)     (DEG/KT/KT) (MB)    (FT/S)
W MID LAKE BUOY  0350   36 35  300/  6/  8 1023.4R   1
DEVILS ISLAND    0400   37      40/  4/  4 1023.1R
PORT WING        0400   33     140/  2/  3 1022.0S
SAXON HARBOR     0430   31      CALM  /  3 1022.0R
$$

LMZ867-665-643>646-270600-
LAKE MICHIGAN

STATION/POSITION TIME  TEMP    WIND        PRES    WAVE
                       AIR SEA DIR/SP/G            HT/PER
                 (UTC) (F)     (DEG/KT/KT) (MB)    (FT/S)
CHAMBERS ISLAND  0400   41     320/  6/  6 1019.0S
NORTHPORT PIER   0400   41     320/  8/ 11 1018.3S
SISTER BAY       0317   44     360/ 14/ 17   N/A
KEWAUNEE LAKESHO 0400   43     340/  4/  6 1017.6S
SHEBOYGAN LAKESH 0400   41     360/ 12/ 13 1019.1R
PORT WASHINGTON  0400   43     360/  6/ 12 1019.0
MILWAUKEE LAKESH 0400   43      10/ 12/ 16   N/A
KENOSHA   LAKESH 0400   44     360/ 17/ 21 1017.6R
$$

TC  - TEMPERATURE IN CELSIUS
VSB - VISIBILITY IN STATUTE MILES
WCI - WIND CHILL INDEX
HX  - HEAT INDEX



USA.gov is the U.S. government's official web portal to all federal, state and local government web resources and services.